FENGYUN 1C DEB

Satellite information

Favourite Embed

Satellite Type and Status

DEBRISIN ORBIT

Key statistics

Satellite FENGYUN 1C DEB at a glance.

Uptime

9665

Days in orbit

Revolutions

≈ 13.6

Per day

Orbit

SSO

Sun Synchronous Orbit

Inclination

97.6

Latest

Satellite identification and parameters

Extended collection of information and parameters for FENGYUN 1C DEB.

Object identification

Identified? True

Debris? True

Object name: FENGYUN 1C DEB

International designator: 1999-025EHX

Object number (NORAD): 37453

Object ID (CCSDS): 37453

Country: PEOPLES REPUBLIC OF CHINA (PRC)

Current information (Y/N): Y

RCS size: SMALL

Orbital parameters

Period: 105.742 minutes

Inclination: 97.642 deg

SMA: 7407.278 km

Apoapsis: 1310.54 km

Periapsis: 747.746 km

RAAN: 305.9422 deg

Eccentricy: 0.0379893

Argument of periapsis: 320.9929 deg

Mean anomaly: 36.4369 deg

Mean motion: 13.61804551 rev/day

Mean motion (dot): 0.00097138 rev/day2

B* drag term: 0.07716 1/REarth

Two-line elements (TLE)

Creation date: April 9, 2025, 5:16 p.m.

Reference frame: TEME

Reference center: EARTH

Epoch: Oct. 11, 2024, 6:52 a.m. UTC

TLE line 0: 0 FENGYUN 1C DEB

TLE line 1: 1 37453U 99025EHX 24285.28665372 .00097138 00000-0 77160-1 0 9997

TLE line 2: 2 37453 97.6420 305.9422 0379893 320.9929 36.4369 13.61804551837957

Live tracking on map

Real-time ground track for satellite FENGYUN 1C DEB.

In-orbit conjunctions

A list of the most updated potential collisions computed for object FENGYUN 1C DEB.

Target Orbit TCA Probability of collision Miss distance Type
SL-8 R/B LEO 2024-09-20 05:09:09 0.0001450394 130.0 (m) ROCKET BODY

Associated space launch

Chinese polar orbiting meteorological satellite

FENGYUN 1C DEB was lifted into orbit during the mission ‘Long March 4B | Feng Yun 1C’, on board a Long March 4B space rocket.

The launch took place on May 10, 1999, 1:33 a.m. from Launch Complex 7.

For more information about the launch, click the button.

Launch to space Long March 4B | Feng Yun 1C
Long March 4B | Feng Yun 1C

Agency: N/A

Status: Launch Successful

Launch date: May 10, 1999, 1:33 a.m. UTC

Rocket: Long March 4B

Launch pad: Launch Complex 7

Location: Taiyuan Satellite Launch Center, People's Republic of China

...

Latest news about this satellite

There are no fresh news available about this satellite. Check back as we update our databases every day.


Newsletter sign-up

Weekly statistics, charts and insights to help you stay on top of the space industry.